When you browse on this site, cookies collect data to enhance your experience and personalize the content and advertising you see.
Visit our Privacy Policy to learn more. By continuing to use the site, you agree to this use of cookies and data.
  • In United Kingdom
  • List of Countries
  • For 7 days
  • Water Temperature
  • Satellite Maps
  • Weather Map
  • Weather Widgets
  • user-avatar
    Login

    Hourly Weather Pechi

    Today, 19 June, Wednesday

    Time Temperature Precipitation Wind Pressure Humidity
    00:00 +18°C° 0 mm 2 mps 750 mmHg 92%
    01:00 +18°C° 0 mm 2 mps 750 mmHg 93%
    02:00 +17°C° 0 mm 2 mps 750 mmHg 94%
    03:00 +17°C° 0 mm 2 mps 750 mmHg 94%
    04:00 +17°C° 0 mm 2 mps 750 mmHg 93%
    05:00 +17°C° 0 mm 2 mps 751 mmHg 93%
    06:00 +19°C° 0 mm 2 mps 751 mmHg 87%
    07:00 +21°C° 0 mm 3 mps 751 mmHg 81%
    08:00 +22°C° 0 mm 3 mps 751 mmHg 76%
    09:00 +25°C° 0 mm 3 mps 751 mmHg 71%
    10:00 +26°C° 0 mm 3 mps 751 mmHg 66%
    11:00 +27°C° 0 mm 3 mps 751 mmHg 60%
    12:00 +27°C° 0 mm 3 mps 751 mmHg 60%
    13:00 +27°C° 0 mm 3 mps 751 mmHg 59%
    14:00 +28°C° 0 mm 3 mps 751 mmHg 58%
    15:00 +27°C° 0 mm 3 mps 750 mmHg 61%
    16:00 +27°C° 0 mm 3 mps 750 mmHg 63%
    17:00 +27°C° 0 mm 3 mps 750 mmHg 66%
    18:00 +25°C° 0 mm 3 mps 750 mmHg 71%
    19:00 +22°C° 0 mm 3 mps 750 mmHg 75%
    20:00 +21°C° 0 mm 3 mps 750 mmHg 80%
    21:00 +20°C° 0 mm 3 mps 750 mmHg 81%
    22:00 +19°C° 0 mm 2 mps 750 mmHg 82%
    23:00 +18°C° 0 mm 2 mps 751 mmHg 82%

    Tomorrow, 20 June, Thursday

    Time Temperature Precipitation Wind Pressure Humidity
    00:00 +18°C° 0 mm 2 mps 750 mmHg 85%
    01:00 +18°C° 0 mm 2 mps 750 mmHg 88%
    02:00 +17°C° 0 mm 2 mps 750 mmHg 91%
    03:00 +17°C° 0 mm 2 mps 750 mmHg 92%
    04:00 +18°C° 0 mm 2 mps 750 mmHg 92%
    05:00 +18°C° 0 mm 2 mps 750 mmHg 92%
    06:00 +19°C° 0 mm 3 mps 750 mmHg 87%
    07:00 +21°C° 0 mm 3 mps 751 mmHg 83%
    08:00 +24°C° 0 mm 3 mps 751 mmHg 79%
    09:00 +25°C° 0 mm 3 mps 751 mmHg 73%
    10:00 +26°C° 0 mm 3 mps 751 mmHg 68%
    11:00 +28°C° 0 mm 3 mps 751 mmHg 63%
    12:00 +28°C° 0 mm 3 mps 750 mmHg 62%
    13:00 +28°C° 0 mm 4 mps 750 mmHg 60%
    14:00 +28°C° 0 mm 4 mps 750 mmHg 59%
    15:00 +28°C° 0 mm 4 mps 750 mmHg 61%
    16:00 +28°C° 0 mm 4 mps 750 mmHg 64%
    17:00 +28°C° 0 mm 4 mps 749 mmHg 67%
    18:00 +26°C° 0 mm 3 mps 750 mmHg 72%
    19:00 +24°C° 0 mm 3 mps 750 mmHg 76%
    20:00 +23°C° 0 mm 2 mps 750 mmHg 81%
    21:00 +21°C° 0 mm 2 mps 750 mmHg 81%
    22:00 +20°C° 0 mm 2 mps 750 mmHg 82%
    23:00 +20°C° 0 mm 3 mps 750 mmHg 83%

    Day after tomorrow, 21 June, Friday

    Time Temperature Precipitation Wind Pressure Humidity
    00:00 +19°C° 0 mm 3 mps 750 mmHg 84%
    01:00 +19°C° 0 mm 3 mps 750 mmHg 85%
    02:00 +18°C° 0 mm 3 mps 750 mmHg 86%
    03:00 +18°C° 0 mm 3 mps 750 mmHg 87%
    04:00 +19°C° 0 mm 2 mps 751 mmHg 87%
    05:00 +19°C° 0 mm 2 mps 751 mmHg 88%
    06:00 +20°C° 0 mm 3 mps 751 mmHg 84%
    07:00 +22°C° 0 mm 3 mps 751 mmHg 80%
    08:00 +25°C° 0 mm 3 mps 751 mmHg 76%
    09:00 +26°C° 0 mm 3 mps 751 mmHg 71%
    10:00 +27°C° 0 mm 3 mps 751 mmHg 66%
    11:00 +28°C° 0 mm 3 mps 751 mmHg 61%
    12:00 +29°C° 0 mm 3 mps 751 mmHg 59%
    13:00 +29°C° 0 mm 3 mps 751 mmHg 58%
    14:00 +29°C° 0 mm 3 mps 751 mmHg 57%
    15:00 +29°C° 0 mm 3 mps 750 mmHg 59%
    16:00 +29°C° 0 mm 3 mps 750 mmHg 60%
    17:00 +29°C° 0 mm 2 mps 750 mmHg 62%
    18:00 +27°C° 0 mm 2 mps 750 mmHg 67%
    19:00 +25°C° 0 mm 2 mps 750 mmHg 72%
    20:00 +24°C° 0 mm 2 mps 750 mmHg 77%
    21:00 +23°C° 0 mm 2 mps 750 mmHg 79%
    22:00 +21°C° 0 mm 2 mps 751 mmHg 80%
    23:00 +21°C° 0 mm 2 mps 751 mmHg 82%

    22 June, Saturday

    Time Temperature Precipitation Wind Pressure Humidity
    00:00 +20°C° 0 mm 2 mps 751 mmHg 83%
    01:00 +20°C° 0 mm 3 mps 750 mmHg 84%
    02:00 +20°C° 0 mm 3 mps 750 mmHg 85%
    03:00 +19°C° 0 mm 2 mps 750 mmHg 86%
    04:00 +19°C° 0 mm 2 mps 750 mmHg 87%
    05:00 +20°C° 0 mm 2 mps 750 mmHg 87%
    06:00 +21°C° 0 mm 3 mps 751 mmHg 83%
    07:00 +24°C° 0 mm 3 mps 751 mmHg 79%
    08:00 +26°C° 0 mm 3 mps 751 mmHg 74%
    09:00 +27°C° 0 mm 3 mps 751 mmHg 68%
    10:00 +29°C° 0 mm 4 mps 751 mmHg 62%
    11:00 +30°C° 0 mm 4 mps 751 mmHg 55%
    12:00 +30°C° 0 mm 4 mps 751 mmHg 54%
    13:00 +32°C° 0 mm 4 mps 751 mmHg 53%
    14:00 +32°C° 0 mm 4 mps 751 mmHg 51%
    15:00 +32°C° 0 mm 4 mps 750 mmHg 55%
    16:00 +30°C° 0 mm 3 mps 750 mmHg 60%
    17:00 +30°C° 0 mm 2 mps 750 mmHg 64%
    18:00 +28°C° 0 mm 2 mps 750 mmHg 67%
    19:00 +26°C° 0 mm 2 mps 750 mmHg 70%
    20:00 +25°C° 0 mm 2 mps 750 mmHg 74%
    21:00 +24°C° 0 mm 2 mps 750 mmHg 74%
    22:00 +22°C° 0 mm 3 mps 750 mmHg 74%
    23:00 +22°C° 0 mm 3 mps 751 mmHg 74%

    23 June, Sunday

    Time Temperature Precipitation Wind Pressure Humidity
    00:00 +21°C° 0 mm 3 mps 751 mmHg 73%
    01:00 +21°C° 0 mm 3 mps 751 mmHg 73%
    02:00 +21°C° 0 mm 3 mps 751 mmHg 72%
    03:00 +21°C° 0 mm 3 mps 751 mmHg 75%
    04:00 +20°C° 0 mm 3 mps 751 mmHg 77%
    05:00 +20°C° 0 mm 3 mps 751 mmHg 79%
    06:00 +22°C° 0 mm 3 mps 751 mmHg 76%
    07:00 +25°C° 0 mm 3 mps 751 mmHg 73%
    08:00 +26°C° 0 mm 3 mps 751 mmHg 69%
    09:00 +27°C° 0 mm 4 mps 751 mmHg 65%
    10:00 +29°C° 0 mm 4 mps 751 mmHg 60%
    11:00 +30°C° 0 mm 4 mps 751 mmHg 56%
    12:00 +30°C° 0 mm 4 mps 751 mmHg 54%
    13:00 +32°C° 0 mm 4 mps 751 mmHg 52%
    14:00 +32°C° 0 mm 5 mps 750 mmHg 51%
    15:00 +32°C° 0 mm 4 mps 750 mmHg 55%
    16:00 +31°C° 0 mm 3 mps 750 mmHg 59%
    17:00 +30°C° 0 mm 3 mps 749 mmHg 63%
    18:00 +29°C° 0 mm 3 mps 749 mmHg 67%
    19:00 +27°C° 0 mm 3 mps 749 mmHg 70%
    20:00 +25°C° 0 mm 3 mps 749 mmHg 73%
    21:00 +25°C° 0 mm 3 mps 749 mmHg 73%
    22:00 +24°C° 0 mm 3 mps 749 mmHg 73%
    23:00 +22°C° 0 mm 3 mps 749 mmHg 73%

    24 June, Monday

    Time Temperature Precipitation Wind Pressure Humidity
    00:00 +22°C° 0 mm 3 mps 749 mmHg 76%
    01:00 +21°C° 0 mm 2 mps 749 mmHg 79%
    02:00 +21°C° 0 mm 2 mps 749 mmHg 82%
    03:00 +21°C° 0.1 mm 2 mps 749 mmHg 84%
    04:00 +21°C° 0.1 mm 2 mps 749 mmHg 86%
    05:00 +20°C° 0.1 mm 2 mps 749 mmHg 87%
    06:00 +22°C° 0.2 mm 3 mps 749 mmHg 84%
    07:00 +24°C° 0.2 mm 3 mps 749 mmHg 80%
    08:00 +25°C° 0.2 mm 3 mps 749 mmHg 77%
    09:00 +27°C° 0 mm 3 mps 749 mmHg 72%
    10:00 +28°C° 0 mm 3 mps 749 mmHg 67%
    11:00 +29°C° 0 mm 3 mps 749 mmHg 62%
    12:00 +30°C° 0.7 mm 3 mps 749 mmHg 61%
    13:00 +30°C° 0.7 mm 3 mps 749 mmHg 60%
    14:00 +30°C° 0.7 mm 3 mps 749 mmHg 58%
    15:00 +29°C° 1.5 mm 4 mps 749 mmHg 64%
    16:00 +28°C° 1.5 mm 4 mps 749 mmHg 69%
    17:00 +27°C° 1.5 mm 5 mps 749 mmHg 74%
    18:00 +25°C° 0.7 mm 4 mps 749 mmHg 77%
    19:00 +23°C° 0.7 mm 2 mps 749 mmHg 80%
    20:00 +21°C° 0.7 mm 1 mps 749 mmHg 83%
    21:00 +21°C° 0 mm 1 mps 749 mmHg 83%
    22:00 +21°C° 0 mm 1 mps 749 mmHg 83%
    23:00 +20°C° 0 mm 1 mps 749 mmHg 83%
    Show more